Location: Unspecified
(0.0000°N, 0.0000°E)
Time: 11:22:25
(UTC+00:00)

COSMOS 2532 - Visible Passes

Search period start: 05 December 2025 00:00
Search period end: 15 December 2025 00:00
Orbit: 1479 x 1509 km, 82.5° (Epoch: 05 December)

Date Brightness Start Highest point End Pass type
(mag) Time Alt. Az. Time Alt. Az. Time Alt. Az.
06 Dec ? 04:35:37 10° NNE 04:42:48 29° E 04:49:57 10° SE visible
06 Dec ? 19:07:51 10° WSW 19:12:59 17° W 19:18:07 10° NW visible
07 Dec ? 03:52:02 10° ENE 03:53:37 11° E 03:55:13 10° E visible
07 Dec ? 18:15:47 10° SSW 18:23:49 40° W 18:31:49 10° NNW visible
08 Dec ? 04:52:30 10° NNE 05:00:51 51° E 05:09:15 10° SSE visible
09 Dec ? 04:05:18 10° NE 04:11:41 23° E 04:18:04 10° SE visible
09 Dec ? 18:35:36 10° SW 18:41:53 22° W 18:48:10 10° NW visible
10 Dec ? 05:10:11 10° N 05:18:55 87° E 05:27:43 10° S visible
11 Dec ? 04:21:45 10° NNE 04:29:45 41° E 04:37:48 10° SSE visible
11 Dec ? 18:59:38 10° W 18:59:58 10° W 19:00:18 10° W visible
12 Dec ? 03:35:18 10° NE 03:40:36 18° E 03:45:53 10° SE visible
13 Dec ? 04:39:08 10° N 04:47:49 72° E 04:56:34 10° S visible
14 Dec ? 03:51:07 10° NNE 03:58:40 33° E 04:06:14 10° SSE visible
14 Dec ? 18:24:44 10° WSW 18:28:52 14° W 18:33:00 10° WNW visible
